TimeCDT,TemperatureF,Dew PointF,Humidity,Sea Level PressureIn,VisibilityMPH,Wind Direction,Wind SpeedMPH,Gust SpeedMPH,PrecipitationIn,Events,Conditions,WindDirDegrees,DateUTC
12:52 AM,39.0,21.9,50,30.06,10.0,NE,6.9,-,N/A,,Clear,50,2013-03-19 05:52:00
1:52 AM,37.0,21.9,54,30.09,10.0,NNE,8.1,-,N/A,,Clear,20,2013-03-19 06:52:00
2:52 AM,36.0,19.9,52,30.11,10.0,ENE,5.8,-,N/A,,Clear,60,2013-03-19 07:52:00
3:52 AM,34.0,19.9,56,30.12,10.0,ENE,4.6,-,N/A,,Clear,60,2013-03-19 08:52:00
4:52 AM,33.1,19.9,59,30.11,10.0,East,5.8,-,N/A,,Clear,80,2013-03-19 09:52:00
5:52 AM,30.9,19.9,64,30.13,10.0,NE,4.6,-,N/A,,Clear,50,2013-03-19 10:52:00
6:52 AM,27.0,19.9,75,30.16,10.0,Calm,Calm,-,N/A,,Clear,0,2013-03-19 11:52:00
7:52 AM,27.0,21.0,78,30.19,10.0,Calm,Calm,-,N/A,,Clear,0,2013-03-19 12:52:00
8:52 AM,36.0,27.0,70,30.20,10.0,Calm,Calm,-,N/A,,Clear,0,2013-03-19 13:52:00
9:52 AM,41.0,21.0,45,30.22,10.0,Variable,3.5,-,N/A,,Clear,0,2013-03-19 14:52:00
10:52 AM,43.0,16.0,34,30.22,10.0,SE,6.9,-,N/A,,Overcast,130,2013-03-19 15:52:00
11:52 AM,45.0,19.0,36,30.21,10.0,ESE,8.1,-,N/A,,Overcast,120,2013-03-19 16:52:00
12:52 PM,48.9,21.9,35,30.22,10.0,East,8.1,-,0.00,,Overcast,100,2013-03-19 17:52:00
1:52 PM,48.9,23.0,36,30.22,10.0,East,9.2,-,N/A,,Overcast,90,2013-03-19 18:52:00
2:52 PM,50.0,24.1,36,30.22,10.0,ENE,11.5,17.3,N/A,,Clear,70,2013-03-19 19:52:00
3:52 PM,48.9,25.0,39,30.22,10.0,NNE,12.7,19.6,N/A,,Partly Cloudy,20,2013-03-19 20:52:00
4:52 PM,48.0,25.0,41,30.23,10.0,NE,10.4,-,N/A,,Clear,50,2013-03-19 21:52:00
5:52 PM,46.0,32.0,58,30.24,10.0,NNE,12.7,-,N/A,,Partly Cloudy,30,2013-03-19 22:52:00
6:52 PM,44.1,33.1,65,30.25,10.0,NNE,11.5,-,N/A,,Scattered Clouds,30,2013-03-19 23:52:00
7:52 PM,41.0,33.1,73,30.25,10.0,ENE,8.1,-,N/A,,Partly Cloudy,60,2013-03-20 00:52:00
8:52 PM,39.0,33.1,79,30.26,10.0,ENE,3.5,-,N/A,,Clear,60,2013-03-20 01:52:00
9:52 PM,37.9,32.0,79,30.28,10.0,Calm,Calm,-,N/A,,Clear,0,2013-03-20 02:52:00
10:52 PM,30.0,28.9,96,30.29,10.0,Calm,Calm,-,N/A,,Clear,0,2013-03-20 03:52:00
11:52 PM,30.0,28.0,92,30.28,10.0,Calm,Calm,-,N/A,,Clear,0,2013-03-20 04:52:00